DLH4MK EDDL-EDDF

Flight info

Callsign DLH4MK
Flight time 0h 29m
Altitude 23000
Route COL6T COL T911 ROLIS ROLIS5A
Aircraft A319/M-SDE2E3FGIJ1LORWXYZ/HB1

Departure

Time 2026-04-18 08:45
Airport Düsseldorf Airport (EDDL)

Arrival

Time 2026-04-18 09:14
Airport Frankfurt Main Airport (EDDF)
Time Latitude Longitude Altitude Speed Heading
2026-04-18 07:49 51.28206 6.76740 129 ft 0 kts 276°
2026-04-18 08:35 51.28206 6.76749 123 ft 4 kts 276°
2026-04-18 08:35 51.28203 6.76792 129 ft 4 kts 269°
2026-04-18 08:36 51.28207 6.76831 128 ft 4 kts 234°
2026-04-18 08:36 51.28224 6.76847 129 ft 4 kts 186°
2026-04-18 08:36 51.28250 6.76851 129 ft 4 kts 186°
2026-04-18 08:36 51.28277 6.76856 128 ft 4 kts 189°
2026-04-18 08:37 51.28303 6.76867 129 ft 4 kts 209°
2026-04-18 08:37 51.28322 6.76893 128 ft 4 kts 227°
2026-04-18 08:37 51.28340 6.76925 123 ft 4 kts 231°
2026-04-18 08:37 51.28357 6.76959 129 ft 4 kts 233°
2026-04-18 08:38 51.28364 6.76975 129 ft 0 kts 232°
2026-04-18 08:39 51.28363 6.76973 129 ft 1 kts 232°
2026-04-18 08:40 51.28358 6.76963 129 ft 2 kts 232°
2026-04-18 08:40 51.28350 6.76917 124 ft 7 kts 271°
2026-04-18 08:40 51.28392 6.76843 129 ft 11 kts 323°
2026-04-18 08:40 51.28457 6.76774 125 ft 9 kts 343°
2026-04-18 08:41 51.28506 6.76813 125 ft 9 kts 50°
2026-04-18 08:41 51.28545 6.76891 125 ft 9 kts 54°
2026-04-18 08:41 51.28590 6.76987 125 ft 12 kts 53°
2026-04-18 08:41 51.28647 6.77108 126 ft 15 kts 53°
2026-04-18 08:42 51.28720 6.77259 130 ft 19 kts 52°
2026-04-18 08:42 51.28802 6.77432 128 ft 21 kts 53°
2026-04-18 08:42 51.28892 6.77620 129 ft 22 kts 53°
2026-04-18 08:42 51.28987 6.77820 129 ft 23 kts 52°
2026-04-18 08:43 51.29087 6.78029 131 ft 24 kts 52°
2026-04-18 08:43 51.29184 6.78234 137 ft 22 kts 53°
2026-04-18 08:43 51.29271 6.78417 145 ft 19 kts 52°
2026-04-18 08:43 51.29345 6.78553 151 ft 14 kts 32°
2026-04-18 08:44 51.29436 6.78567 153 ft 14 kts 355°
2026-04-18 08:44 51.29512 6.78537 152 ft 12 kts 319°
2026-04-18 08:44 51.29509 6.78450 150 ft 9 kts 233°
2026-04-18 08:44 51.29453 6.78332 147 ft 22 kts 233°
2026-04-18 08:45 51.29179 6.77756 132 ft 109 kts 233°
2026-04-18 08:45 51.28583 6.76512 332 ft 155 kts 231°
2026-04-18 08:45 51.27943 6.75160 1214 ft 152 kts 232°
2026-04-18 08:45 51.27288 6.73743 1860 ft 170 kts 232°
2026-04-18 08:46 51.26545 6.72130 2408 ft 191 kts 233°
2026-04-18 08:46 51.25697 6.70329 2899 ft 219 kts 233°
2026-04-18 08:46 51.24730 6.68284 3555 ft 243 kts 233°
2026-04-18 08:46 51.23680 6.66030 4398 ft 259 kts 233°
2026-04-18 08:47 51.22341 6.64099 5468 ft 266 kts 206°
2026-04-18 08:47 51.20521 6.63582 6607 ft 272 kts 177°
2026-04-18 08:47 51.18690 6.64360 7766 ft 277 kts 155°
2026-04-18 08:47 51.17148 6.66254 8854 ft 285 kts 138°
2026-04-18 08:48 51.15734 6.68496 9908 ft 289 kts 137°
2026-04-18 08:48 51.14300 6.70817 10701 ft 304 kts 137°
2026-04-18 08:48 51.12781 6.73276 11220 ft 325 kts 137°
2026-04-18 08:48 51.11171 6.75880 12026 ft 334 kts 136°
2026-04-18 08:49 51.09524 6.78545 12915 ft 340 kts 136°
2026-04-18 08:49 51.07853 6.81239 13796 ft 345 kts 137°
2026-04-18 08:49 51.06155 6.83973 14649 ft 350 kts 137°
2026-04-18 08:49 51.04432 6.86748 15474 ft 355 kts 137°
2026-04-18 08:50 51.02687 6.89554 16268 ft 359 kts 137°
2026-04-18 08:50 51.00917 6.92387 17037 ft 364 kts 137°
2026-04-18 08:50 50.99146 6.95212 17789 ft 368 kts 137°
2026-04-18 08:50 50.97333 6.98105 18526 ft 372 kts 137°
2026-04-18 08:51 50.95495 7.01038 19257 ft 377 kts 137°
2026-04-18 08:51 50.93640 7.04000 19946 ft 381 kts 137°
2026-04-18 08:51 50.91764 7.06992 20631 ft 385 kts 137°
2026-04-18 08:51 50.89857 7.10024 21298 ft 390 kts 137°
2026-04-18 08:52 50.87930 7.13073 21945 ft 394 kts 137°
2026-04-18 08:52 50.85976 7.16156 22588 ft 398 kts 137°
2026-04-18 08:52 50.84029 7.19232 23054 ft 403 kts 138°
2026-04-18 08:52 50.82049 7.22362 23195 ft 402 kts 138°
2026-04-18 08:53 50.80084 7.25474 23220 ft 401 kts 137°
2026-04-18 08:53 50.78105 7.28594 22895 ft 403 kts 138°
2026-04-18 08:53 50.76125 7.31707 22411 ft 400 kts 137°
2026-04-18 08:53 50.74163 7.34789 21905 ft 396 kts 137°
2026-04-18 08:54 50.72215 7.37844 21405 ft 393 kts 137°
2026-04-18 08:54 50.70437 7.41104 20905 ft 393 kts 124°
2026-04-18 08:54 50.69137 7.44893 20405 ft 391 kts 119°
2026-04-18 08:54 50.67902 7.48695 19906 ft 388 kts 118°
2026-04-18 08:55 50.66695 7.52422 19411 ft 385 kts 118°
2026-04-18 08:55 50.65483 7.56158 18912 ft 382 kts 118°
2026-04-18 08:55 50.64278 7.59868 18409 ft 378 kts 118°
2026-04-18 08:55 50.63084 7.63532 17986 ft 374 kts 118°
2026-04-18 08:56 50.61903 7.67150 17561 ft 369 kts 119°
2026-04-18 08:56 50.60732 7.70724 17132 ft 365 kts 119°
2026-04-18 08:56 50.59574 7.74256 16706 ft 361 kts 119°
2026-04-18 08:56 50.58427 7.77753 16282 ft 358 kts 119°
2026-04-18 08:57 50.56170 7.84597 15433 ft 352 kts 119°
2026-04-18 08:57 50.55048 7.87999 15011 ft 349 kts 119°
2026-04-18 08:57 50.53936 7.91376 14583 ft 346 kts 119°
2026-04-18 08:58 50.52833 7.94722 14158 ft 344 kts 119°
2026-04-18 08:58 50.51737 7.98040 13735 ft 341 kts 119°
2026-04-18 08:58 50.50641 8.01333 13299 ft 339 kts 119°
2026-04-18 08:58 50.49553 8.04596 12881 ft 336 kts 119°
2026-04-18 08:59 50.48488 8.07793 12461 ft 333 kts 119°
2026-04-18 08:59 50.47420 8.11004 12035 ft 331 kts 119°
2026-04-18 08:59 50.46359 8.14193 11604 ft 328 kts 119°
2026-04-18 08:59 50.45306 8.17349 11178 ft 325 kts 119°
2026-04-18 09:00 50.44258 8.20483 10756 ft 323 kts 119°
2026-04-18 09:00 50.43221 8.23586 10330 ft 320 kts 119°
2026-04-18 09:00 50.42196 8.26658 9904 ft 316 kts 119°
2026-04-18 09:00 50.41182 8.29697 9479 ft 313 kts 119°
2026-04-18 09:01 50.40177 8.32710 9058 ft 310 kts 119°
2026-04-18 09:01 50.39182 8.35683 8629 ft 306 kts 119°
2026-04-18 09:01 50.38209 8.38583 8208 ft 303 kts 119°
2026-04-18 09:01 50.37229 8.41491 7781 ft 300 kts 119°
2026-04-18 09:02 50.36257 8.44368 7356 ft 298 kts 119°
2026-04-18 09:02 50.35289 8.47223 6927 ft 295 kts 119°
2026-04-18 09:02 50.34333 8.50051 6499 ft 292 kts 119°
2026-04-18 09:02 50.33388 8.52847 6073 ft 289 kts 119°
2026-04-18 09:03 50.32452 8.55607 5666 ft 285 kts 119°
2026-04-18 09:03 50.31539 8.58297 5414 ft 276 kts 119°
2026-04-18 09:03 50.30646 8.60929 5166 ft 273 kts 119°
2026-04-18 09:03 50.29769 8.63508 4920 ft 271 kts 118°
2026-04-18 09:04 50.28884 8.66106 4665 ft 270 kts 118°
2026-04-18 09:04 50.28003 8.68694 4418 ft 269 kts 118°
2026-04-18 09:04 50.27125 8.71269 4165 ft 268 kts 118°
2026-04-18 09:04 50.26247 8.73828 4022 ft 267 kts 118°
2026-04-18 09:05 50.25371 8.76382 4014 ft 267 kts 118°
2026-04-18 09:05 50.24508 8.78902 4012 ft 255 kts 118°
2026-04-18 09:05 50.23694 8.81255 4002 ft 239 kts 119°
2026-04-18 09:05 50.22915 8.83506 4017 ft 237 kts 119°
2026-04-18 09:06 50.22126 8.85782 4016 ft 236 kts 119°
2026-04-18 09:06 50.21358 8.88005 4001 ft 235 kts 119°
2026-04-18 09:06 50.20580 8.90253 4007 ft 235 kts 120°
2026-04-18 09:06 50.19517 8.92149 4022 ft 234 kts 146°
2026-04-18 09:07 50.18101 8.93412 4021 ft 234 kts 153°
2026-04-18 09:07 50.16655 8.94575 4010 ft 234 kts 154°
2026-04-18 09:07 50.15212 8.95672 4007 ft 224 kts 161°
2026-04-18 09:07 50.13755 8.95760 4021 ft 203 kts 198°
2026-04-18 09:08 50.12644 8.94615 4049 ft 185 kts 231°
2026-04-18 09:08 50.12080 8.92871 4041 ft 179 kts 250°
2026-04-18 09:08 50.11663 8.91078 4019 ft 178 kts 250°
2026-04-18 09:08 50.11241 8.89266 4021 ft 178 kts 250°
2026-04-18 09:09 50.10816 8.87452 4023 ft 178 kts 250°
2026-04-18 09:09 50.10389 8.85639 3897 ft 178 kts 250°
2026-04-18 09:09 50.09964 8.83833 3700 ft 178 kts 250°
2026-04-18 09:09 50.09540 8.82029 3482 ft 177 kts 250°
2026-04-18 09:10 50.09116 8.80227 3257 ft 177 kts 250°
2026-04-18 09:10 50.08694 8.78442 3026 ft 174 kts 250°
2026-04-18 09:10 50.08285 8.76709 2784 ft 167 kts 250°
2026-04-18 09:10 50.07900 8.75079 2579 ft 154 kts 250°
2026-04-18 09:11 50.07544 8.73574 2397 ft 141 kts 250°
2026-04-18 09:11 50.07223 8.72217 2213 ft 131 kts 249°
2026-04-18 09:11 50.06911 8.70901 2037 ft 128 kts 249°
2026-04-18 09:11 50.06603 8.69603 1858 ft 128 kts 249°
2026-04-18 09:12 50.06297 8.68310 1690 ft 127 kts 251°
2026-04-18 09:12 50.05989 8.67023 1518 ft 127 kts 251°
2026-04-18 09:12 50.05685 8.65726 1363 ft 128 kts 251°
2026-04-18 09:12 50.05370 8.64415 1169 ft 131 kts 250°
2026-04-18 09:13 50.05054 8.63088 1008 ft 131 kts 251°
2026-04-18 09:13 50.04736 8.61760 831 ft 131 kts 250°
2026-04-18 09:13 50.04430 8.60454 643 ft 128 kts 251°
2026-04-18 09:13 50.04128 8.59178 462 ft 123 kts 251°
2026-04-18 09:14 50.03834 8.57942 371 ft 119 kts 251°
2026-04-18 09:14 50.03591 8.56916 354 ft 79 kts 249°
2026-04-18 09:14 50.03477 8.56445 355 ft 29 kts 250°
2026-04-18 09:14 50.03437 8.56165 354 ft 21 kts 266°
2026-04-18 09:15 50.03446 8.55974 346 ft 16 kts 279°
2026-04-18 09:15 50.03454 8.55892 345 ft 6 kts 280°
2026-04-18 09:15 50.03463 8.55815 345 ft 9 kts 280°
2026-04-18 09:15 50.03488 8.55714 351 ft 9 kts 318°
2026-04-18 09:16 50.03543 8.55721 349 ft 8 kts 36°
2026-04-18 09:16 50.03570 8.55796 348 ft 9 kts 69°
2026-04-18 09:16 50.03595 8.55901 349 ft 12 kts 70°
2026-04-18 09:16 50.03626 8.56033 353 ft 14 kts 70°
2026-04-18 09:17 50.03663 8.56189 353 ft 16 kts 69°
2026-04-18 09:17 50.03705 8.56366 357 ft 18 kts 70°
2026-04-18 09:17 50.03752 8.56561 352 ft 20 kts 70°
2026-04-18 09:17 50.03802 8.56771 353 ft 21 kts 69°
2026-04-18 09:18 50.03855 8.56991 359 ft 22 kts 69°
2026-04-18 09:18 50.03907 8.57209 360 ft 21 kts 70°
2026-04-18 09:18 50.03956 8.57418 364 ft 20 kts 70°
2026-04-18 09:18 50.04006 8.57627 366 ft 21 kts 69°
2026-04-18 09:19 50.04058 8.57843 367 ft 22 kts 70°
2026-04-18 09:19 50.04109 8.58050 367 ft 14 kts 69°
2026-04-18 09:19 50.04169 8.58154 367 ft 14 kts 27°
2026-04-18 09:19 50.04267 8.58208 370 ft 15 kts
2026-04-18 09:20 50.04369 8.58156 368 ft 16 kts 340°
2026-04-18 09:20 50.04473 8.58096 365 ft 15 kts 339°
2026-04-18 09:20 50.04557 8.58047 362 ft 11 kts 340°
2026-04-18 09:20 50.04618 8.58012 359 ft 6 kts 339°
2026-04-18 09:21 50.04636 8.58001 359 ft 1 kts 339°
2026-04-18 09:21 50.04643 8.57997 359 ft 0 kts 339°
2026-04-18 09:24 50.04650 8.57993 358 ft 2 kts 340°
2026-04-18 09:24 50.04668 8.57983 358 ft 4 kts 340°
2026-04-18 09:25 50.04695 8.57968 362 ft 5 kts 340°
2026-04-18 09:25 50.04728 8.57953 360 ft 5 kts 353°
2026-04-18 09:25 50.04765 8.57969 361 ft 6 kts 30°
2026-04-18 09:25 50.04793 8.58018 360 ft 6 kts 65°
2026-04-18 09:26 50.04783 8.58063 358 ft 5 kts 135°
2026-04-18 09:26 50.04759 8.58080 361 ft 2 kts 159°
2026-04-18 09:26 50.04757 8.58082 363 ft 0 kts 159°
2026-04-18 09:26 50.04756 8.58082 359 ft 0 kts 159°
2026-04-18 09:27 50.04747 8.58088 360 ft 2 kts 159°
2026-04-18 09:27 50.04732 8.58096 361 ft 2 kts 159°
2026-04-18 09:27 50.04725 8.58100 362 ft 0 kts 159°